Station APAM2 - 8575512 - Annapolis, MD Image indicating link to RSS feed of recent meteorological observations for station APAM2


Conditions at APAM2 as of
(9:30 am EDT)
1330 GMT on 09/05/2026:
     

Click on the graph icon in the table below to see a time series plot of the last five days of that observation.

5-day plot - Wind Direction Wind Direction (WDIR): N ( 350 deg true )
5-day plot - Wind Speed Wind Speed (WSPD): 8.9 kts
5-day plot - Wind Gust Wind Gust (GST): 11.1 kts
5-day plot - Atmospheric Pressure Atmospheric Pressure (PRES):29.87 in
5-day plot - Air Temperature Air Temperature (ATMP): 79.2 °F
5-day plot - Water Temperature Water Temperature (WTMP): 82.9 °F
5-day plot -  Wind Speed, Wind Gust and Atmospheric Pressure Combined plot of Wind Speed, Gust, and Air Pressure
NOS Water Level Observation Network Water Level
Previous observations
TIME
(EDT)
5-day plot - Wind Direction
WDIR
 
5-day plot - Wind Speed
WSPD
kts
5-day plot - Wind Gust
GST
kts
5-day plot - Wave Height
WVHT
ft
5-day plot - Dominant Wave Period
DPD
sec
5-day plot - Average Wave Period
APD
sec
5-day plot - Mean Wave Direction
MWD
 
5-day plot - Atmospheric Pressure
PRES
in
5-day plot - Pressure Tendency
PTDY
in
5-day plot - Air Temperature
ATMP
°F
5-day plot - Water Temperature
WTMP
°F
5-day plot - Dew Point
DEWP
°F
5-day plot - Salinity
SAL
psu
5-day plot - Visibility
VIS
nmi
5-day plot - Tide (above MLLW)
TIDE
ft
2026-09-05 09:24 amNNE 8.0 11.1----29.87- 79.5 82.9----
2026-09-05 09:18 am N 5.1 8.9----29.87-- 82.9----
2026-09-05 09:12 am N 5.1 9.9----29.87-- 82.9----
2026-09-05 09:06 am N 5.1 8.9----29.86-- 82.9----
2026-09-05 09:00 amNNE 7.0 8.9----29.86+0.04 79.5 82.9----
2026-09-05 08:54 amNNW 6.0 8.9----29.85- 79.5 82.9----
2026-09-05 08:48 amNNW 4.1 6.0----29.86- 79.3 82.9----
2026-09-05 08:42 amNNW 6.0 7.0----29.86- 78.8 82.9----
2026-09-05 08:36 am NW 5.1 8.0----29.86- 78.8 82.9----
2026-09-05 08:30 amNNW 6.0 8.0----29.86- 78.6 82.9----
2026-09-05 08:24 am NW 5.1 7.0----29.86- 78.4 82.9----
2026-09-05 08:18 am NW 6.0 8.0----29.86-- 82.9----
2026-09-05 08:12 amWNW 6.0 7.0----29.85-- 82.9----
2026-09-05 08:06 amWNW 4.1 6.0----29.85-- 82.9----
2026-09-05 08:00 amWNW 2.9 5.1----29.85+0.04 78.4 82.9----
2026-09-05 07:54 am NW 4.1 5.1----29.85- 78.3 82.9----
2026-09-05 07:48 am NW 4.1 7.0----29.84-- 82.9----
2026-09-05 07:42 am NW 5.1 7.0----29.85-- 82.8----
2026-09-05 07:36 am NW 5.1 6.0----29.85-- 82.8----
2026-09-05 07:30 am NW 5.1 6.0----29.85- 77.5 82.8----
2026-09-05 07:24 am NW 6.0 7.0----29.84- 77.7 82.9----
2026-09-05 07:18 am NW 6.0 8.0----29.84-- 82.9----
2026-09-05 07:12 am NW 7.0 8.0----29.84-- 82.9----
2026-09-05 07:06 am NW 7.0 8.9----29.84-- 82.9----
2026-09-05 07:00 am NW 8.0 9.9----29.83+0.01 77.7 82.9----
2026-09-05 06:54 am NW 8.0 9.9----29.83- 77.9 82.9----
2026-09-05 06:48 am NW 8.0 9.9----29.83- 77.7 82.9----
2026-09-05 06:42 am NW 8.0 11.1----29.83- 78.3 82.9----
2026-09-05 06:36 amWNW 9.9 12.0----29.83- 78.1 82.9----
2026-09-05 06:30 amWNW 9.9 12.0----29.82- 78.1 82.9----
2026-09-05 06:24 am NW 9.9 13.0----29.82- 78.3 82.9----
2026-09-05 06:18 am NW 8.0 11.1----29.82-- 82.9----
2026-09-05 06:12 am NW 9.9 12.0----29.82-- 82.9----
2026-09-05 06:06 am NW 9.9 12.0----29.82-- 82.9----
2026-09-05 06:00 am NW 8.9 11.1----29.82-0.01 78.3 82.9----
2026-09-05 05:54 am NW 8.0 9.9----29.82- 78.4 83.1----
2026-09-05 05:48 amWNW 8.0 8.9----29.81- 78.4 83.1----
2026-09-05 05:42 amWNW 7.0 8.9----29.81- 78.3 83.1----
2026-09-05 05:36 amWNW 7.0 9.9----29.81- 78.4 83.1----
2026-09-05 05:30 amWNW 7.0 8.9----29.81- 78.4 82.9----
2026-09-05 05:24 amWNW 6.0 8.9----29.81- 78.8 82.9----
2026-09-05 05:18 amWNW 6.0 8.0----29.81-- 82.9----
2026-09-05 05:12 am W 6.0 8.9----29.81-- 82.9----
2026-09-05 05:06 am W 7.0 8.9----29.81-- 82.9----
2026-09-05 05:00 amWNW 7.0 9.9----29.81-0.03 78.1 82.9----
2026-09-05 04:54 amWNW 7.0 9.9----29.81- 78.1 82.9----
2026-09-05 04:48 amWNW 7.0 9.9----29.81- 78.1 82.9----
2026-09-05 04:42 amWNW 7.0 8.9----29.81- 78.3 82.9----
2026-09-05 04:36 amWNW 7.0 9.9----29.81- 78.3 82.9----
2026-09-05 04:30 am W 7.0 8.9----29.81- 78.1 82.9----
2026-09-05 04:24 am W 6.0 8.9----29.81- 78.1 82.9----
2026-09-05 04:18 am W 7.0 9.9----29.81-- 82.9----
2026-09-05 04:12 am W 7.0 9.9----29.81-- 82.9----
2026-09-05 04:06 am W 6.0 8.9----29.82-- 82.9----
2026-09-05 04:00 am W 6.0 8.9----29.82-0.04 78.4 82.9----
2026-09-05 03:54 am W 5.1 8.9----29.82- 78.4 82.9----
2026-09-05 03:48 amWNW 7.0 11.1----29.82- 78.8 82.9----
2026-09-05 03:42 am W 8.0 9.9----29.82- 79.0 82.9----
2026-09-05 03:36 am W 7.0 9.9----29.82- 79.0 82.9----
2026-09-05 03:30 am W 8.0 11.1----29.82- 79.2 82.8----
2026-09-05 03:24 am W 8.9 12.0----29.82- 79.2 82.9----
2026-09-05 03:18 am W 6.0 13.0----29.82- 79.0 82.9----
2026-09-05 03:12 am W 7.0 9.9----29.82- 79.0 82.9----
2026-09-05 03:06 am W 7.0 11.1----29.83- 79.2 82.9----
2026-09-05 03:00 am W 7.0 12.0----29.83-0.03 79.0 82.9----
2026-09-05 02:54 am W 7.0 11.1----29.83- 79.0 82.9----
2026-09-05 02:48 amWNW 7.0 9.9----29.83-- 82.9----
2026-09-05 02:42 am W 6.0 8.0----29.83-- 82.9----
2026-09-05 02:36 am W 6.0 8.0----29.84-- 82.9----
2026-09-05 02:30 am W 6.0 8.9----29.84- 78.4 82.9----
2026-09-05 02:24 am W 5.1 8.9----29.84- 78.6 82.9----
2026-09-05 02:18 am W 6.0 8.9----29.84-- 82.8----
2026-09-05 02:12 am W 7.0 8.9----29.84-- 82.8----
2026-09-05 02:06 am W 7.0 9.9----29.84-- 82.8----
2026-09-05 02:00 am W 5.1 7.0----29.84-0.03 78.6 82.8----
2026-09-05 01:54 am W 5.1 8.0----29.84- 78.6 82.8----
2026-09-05 01:48 am W 5.1 7.0----29.84- 78.6 82.8----
2026-09-05 01:42 am W 5.1 8.0----29.84- 78.8 82.8----
2026-09-05 01:36 am W 6.0 8.0----29.85- 79.2 82.8----
2026-09-05 01:30 am W 5.1 7.0----29.85- 79.2 82.8----
2026-09-05 01:24 amWNW 6.0 8.0----29.85- 79.3 82.9----
2026-09-05 01:18 am W 6.0 9.9----29.85-- 82.9----
2026-09-05 01:12 am W 6.0 8.9----29.85-- 82.9----
2026-09-05 01:06 am W 6.0 8.0----29.85-- 82.9----
2026-09-05 01:00 amWNW 8.0 8.9----29.85-0.01 79.3 82.9----
2026-09-05 12:54 am W 6.0 8.9----29.86- 79.2 83.1----
2026-09-05 12:48 amWNW 6.0 8.9----29.86-- 83.1----
2026-09-05 12:42 am W 2.9 7.0----29.86-- 83.1----
2026-09-05 12:36 am W 4.1 6.0----29.86-- 83.1----
2026-09-05 12:30 amWSW 1.9 6.0----29.86- 79.0 83.1----
2026-09-05 12:24 am W 4.1 6.0----29.86- 79.0 83.1----
2026-09-05 12:18 am W 5.1 6.0----29.86-- 82.9----
2026-09-05 12:12 am W 4.1 6.0----29.86-- 82.8----
2026-09-05 12:06 amWNW 5.1 7.0----29.86-- 82.8----
2026-09-05 12:00 am W 2.9 7.0----29.86+0.01 79.3 82.8----
2026-09-04 11:54 pm W 2.9 6.0----29.86- 79.3 82.8----
2026-09-04 11:48 pm W 2.9 7.0----29.87-- 82.8----
2026-09-04 11:42 pmWSW 2.9 6.0----29.87-- 82.8----
2026-09-04 11:36 pmWSW 1.0 6.0----29.87-- 82.9----
2026-09-04 11:30 pm SW 2.9 6.0----29.87- 79.3 82.8----
2026-09-04 11:24 pmWSW 1.9 6.0----29.87- 79.3 82.8----
2026-09-04 11:18 pm SW 1.9 6.0----29.87-- 82.8----
2026-09-04 11:12 pmWSW 2.9 6.0----29.87-- 82.6----
2026-09-04 11:06 pm SW 1.9 4.1----29.87-- 82.8----
2026-09-04 11:00 pmWSW 1.9 5.1----29.87+0.02 80.1 82.9----
2026-09-04 10:54 pmWSW 1.0 4.1----29.87- 80.2 82.9----
2026-09-04 10:48 pm W 1.9 5.1----29.87- 80.4 82.9----
2026-09-04 10:42 pmWSW 2.9 5.1----29.87- 80.4 82.9----
2026-09-04 10:36 pmWSW 1.9 2.9----29.88- 80.6 82.9----
2026-09-04 10:30 pm SW 1.9 5.1----29.87- 80.8 82.9----
2026-09-04 10:24 pm SW 1.0 4.1----29.87- 81.1 82.9----
2026-09-04 10:18 pmSSW 1.9 5.1----29.87-- 83.1----
2026-09-04 10:12 pm SW 1.9 5.1----29.87-- 83.1----
2026-09-04 10:06 pm SW 1.9 5.1----29.87-- 83.1----
2026-09-04 10:00 pmWSW 1.0 5.1----29.87+0.02 81.3 83.1----
2026-09-04 09:54 pm SW 1.0 4.1----29.86- 81.5 83.1----
2026-09-04 09:48 pm SW 1.9 4.1----29.86- 81.7 83.1----
2026-09-04 09:42 pmWSW 1.9 5.1----29.86- 82.0 83.1----
2026-09-04 09:36 pm SW 4.1 6.0----29.87- 82.4 82.9----
2026-09-04 09:30 pmSSW 4.1 5.1----29.86- 82.8 82.9----
2026-09-04 09:24 pmWSW 1.0 4.1----29.85- 82.9 82.9----
2026-09-04 09:18 pm SW 1.0 4.1----29.85-- 82.9----
2026-09-04 09:12 pm- 0.0 2.9----29.85-- 83.1----
2026-09-04 09:06 pm SW 2.9 5.1----29.85-- 83.1----
2026-09-04 09:00 pm SW 1.9 5.1----29.85-0.02 83.3 83.1----
2026-09-04 08:54 pmSSW 4.1 5.1----29.85- 83.5 82.9----
2026-09-04 08:48 pm S 2.9 5.1----29.85- 83.8 82.9----
2026-09-04 08:42 pmSSW 1.9 4.1----29.85- 84.2 82.9----
2026-09-04 08:36 pmSSW 2.9 4.1----29.85- 84.4 83.1----
2026-09-04 08:30 pmSSW 1.9 2.9----29.85- 84.4 83.1----
2026-09-04 08:24 pm- 0.0 4.1----29.85- 84.4 83.1----
2026-09-04 08:18 pm S 2.9 5.1----29.85-- 82.9----
2026-09-04 08:12 pm S 4.1 5.1----29.85-- 82.9----
2026-09-04 08:06 pmWSW 1.0 1.9----29.84-- 82.8----
2026-09-04 08:00 pm W 1.0 2.9----29.85-0.02 84.0 82.8----
2026-09-04 07:54 pmWNW 1.9 2.9----29.85- 83.8 82.8----
2026-09-04 07:48 pm W 2.9 4.1----29.85- 84.2 82.9----
2026-09-04 07:42 pm- 0.0 1.0----29.84- 85.1 82.8----
2026-09-04 07:36 pm- 0.0 1.0----29.84- 85.5 82.8----
2026-09-04 07:30 pm- 0.0 2.9----29.84- 85.6 82.2----
2026-09-04 07:24 pm S 2.9 2.9----29.85- 85.8 82.0----
2026-09-04 07:18 pm S 2.9 4.1----29.85-- 82.0----
2026-09-04 07:12 pmSSE 1.9 4.1----29.84-- 82.2----
2026-09-04 07:06 pmSSE 1.9 4.1----29.85-- 82.0----
2026-09-04 07:00 pm S 1.9 2.9----29.85-0.02 86.2 82.0----
2026-09-04 06:54 pmSSE 1.9 2.9----29.85- 86.2 82.6----
2026-09-04 06:48 pm S 2.9 4.1----29.85- 86.4 83.8----
2026-09-04 06:42 pmSSE 1.9 4.1----29.84- 86.0 84.2----
2026-09-04 06:36 pmSSE 1.9 4.1----29.84- 86.0 84.4----
2026-09-04 06:30 pm SE 2.9 4.1----29.85- 85.8 84.4----
2026-09-04 06:24 pmSSE 2.9 5.1----29.85- 86.0 84.2----
2026-09-04 06:18 pm SE 2.9 4.1----29.85- 86.2 83.8----
2026-09-04 06:12 pmSSE 2.9 5.1----29.86- 86.2 83.5----
2026-09-04 06:06 pm SE 4.1 5.1----29.87- 86.7 84.0----
2026-09-04 06:00 pm S 2.9 5.1----29.87-0.01 88.0 84.2----
2026-09-04 05:54 pmSSE 1.9 4.1----29.87- 88.5 84.4----
2026-09-04 05:48 pm W 1.0 2.9----29.87- 88.7 84.4----
2026-09-04 05:42 pm W 1.9 4.1----29.87- 88.7 84.4----
2026-09-04 05:36 pm SW 1.0 2.9----29.87- 88.7 84.4----
2026-09-04 05:30 pmWNW 1.9 6.0----29.86- 88.7 84.4----
2026-09-04 05:24 pmWNW 4.1 5.1----29.87- 89.1 84.4----
2026-09-04 05:18 pmWNW 2.9 4.1----29.87-- 84.6----
2026-09-04 05:12 pm W 2.9 4.1----29.87-- 84.6----
2026-09-04 05:06 pm W 4.1 7.0----29.87-- 84.6----
2026-09-04 05:00 pm W 5.1 8.0----29.87-0.03 89.2 84.4----
2026-09-04 04:54 pmWNW 7.0 8.9----29.88- 89.4 84.4----
2026-09-04 04:48 pmWNW 7.0 8.9----29.87- 89.1 84.4----
2026-09-04 04:42 pmWNW 6.0 11.1----29.88- 89.4 84.2----
2026-09-04 04:36 pmWNW 7.0 9.9----29.88- 89.6 84.2----
2026-09-04 04:30 pmWNW 5.1 8.0----29.89- 88.9 84.2----
2026-09-04 04:24 pm E 1.9 4.1----29.88- 86.5 84.2----
2026-09-04 04:18 pmSSE 2.9 5.1----29.88-- 84.2----
2026-09-04 04:12 pmESE 4.1 8.0----29.88-- 84.2----
2026-09-04 04:06 pm W 5.1 8.9----29.87-- 84.2----
2026-09-04 04:00 pmWNW 6.0 9.9----29.87-0.04 89.8 84.0----
2026-09-04 03:54 pm- 0.0 5.1----29.88- 87.6 84.0----
2026-09-04 03:48 pm SE 5.1 7.0----29.88- 87.1 84.2----
2026-09-04 03:42 pmESE 1.9 7.0----29.88- 88.2 84.0----
2026-09-04 03:36 pmWNW 7.0 8.9----29.88- 90.0 84.2----
2026-09-04 03:30 pmWNW 8.0 9.9----29.88- 89.6 84.2----
2026-09-04 03:24 pmWNW 8.0 9.9----29.88- 90.3 84.0----
2026-09-04 03:18 pmWNW 5.1 7.0----29.88-- 84.0----
2026-09-04 03:12 pm NW 6.0 7.0----29.88-- 84.0----
2026-09-04 03:06 pm NW 6.0 8.0----29.88-- 83.8----
2026-09-04 03:00 pm NW 5.1 8.0----29.88-0.04 91.2 84.0----
2026-09-04 02:54 pmWNW 5.1 6.0----29.89- 90.7 84.0----
2026-09-04 02:48 pmWNW 4.1 7.0----29.89- 90.5 84.0----
2026-09-04 02:42 pm NW 5.1 6.0----29.89- 89.8 83.8----
2026-09-04 02:36 pm NW 5.1 8.0----29.89- 88.3 84.0----
2026-09-04 02:30 pm NW 7.0 7.0----29.90- 88.0 83.8----
2026-09-04 02:24 pmNNW 4.1 7.0----29.90- 88.3 83.8----
2026-09-04 02:18 pm-------29.90-- 83.8----
2026-09-04 02:12 pm-------29.90-- 83.8----
2026-09-04 02:06 pm-------29.90-- 83.8----
2026-09-04 02:00 pm NW 6.0 8.0----29.90-0.04 86.9 83.8----
2026-09-04 01:54 pm NW 7.0 8.0----29.90- 86.9 83.7----
2026-09-04 01:48 pm NW 6.0 8.0----29.90-------
2026-09-04 01:42 pm NW 7.0 8.9----29.90-------
2026-09-04 01:36 pm NW 6.0 7.0----29.91-------
2026-09-04 01:30 pmWNW 7.0 8.0----29.91- 86.5 83.7----
2026-09-04 01:24 pmWNW 8.0 8.9----29.91- 85.8 83.5----
2026-09-04 01:18 pm NW 8.0 8.9----29.91-- 83.5----
2026-09-04 01:12 pmWNW 8.0 8.9----29.91-- 83.5----
2026-09-04 01:06 pm NW 8.0 8.9----29.91-- 83.5----
2026-09-04 01:00 pm NW 7.0 8.9----29.91-0.03 85.3 83.3----
2026-09-04 12:54 pm NW 8.0 9.9----29.91- 85.1 83.3----
2026-09-04 12:48 pm NW 8.0 8.9----29.92- 84.9 83.3----
2026-09-04 12:42 pm NW 8.0 11.1----29.92- 84.7 83.3----
2026-09-04 12:36 pm NW 8.9 9.9----29.92- 84.7 83.3----
2026-09-04 12:30 pm NW 8.0 9.9----29.92- 84.4 83.1----
2026-09-04 12:24 pm NW 8.0 8.9----29.92- 84.2 83.1----
2026-09-04 12:18 pm NW 8.9 9.9----29.92-- 83.1----
2026-09-04 12:12 pmWNW 7.0 8.9----29.93-- 82.9----
2026-09-04 12:06 pmWNW 7.0 11.1----29.93-- 82.9----
2026-09-04 12:00 pmWNW 8.9 12.0----29.93+0.00 84.4 82.9----
2026-09-04 11:54 amWNW 8.9 11.1----29.93- 83.7 82.8----
2026-09-04 11:48 am NW 7.0 9.9----29.93-- 82.9----
2026-09-04 11:42 am NW 6.0 9.9----29.93-- 82.9----
2026-09-04 11:36 amWNW 8.0 9.9----29.93-- 82.8----
2026-09-04 11:30 amWNW 8.9 11.1----29.93- 82.9 82.6----
2026-09-04 11:24 amWNW 8.9 11.1----29.93- 83.1 82.8----
2026-09-04 11:18 amWNW 8.0 9.9----29.93-- 82.9----
2026-09-04 11:12 amWNW 7.0 9.9----29.93-- 82.9----
2026-09-04 11:06 amWNW 7.0 8.9----29.93-- 82.9----
2026-09-04 11:00 amWNW 7.0 12.0----29.94+0.00 84.0 82.9----
2026-09-04 10:54 amWNW 7.0 9.9----29.94- 83.5 83.1----
2026-09-04 10:48 am NW 5.1 8.0----29.94- 82.9 82.9----
2026-09-04 10:42 amWNW 5.1 8.9----29.94- 82.9 82.8----
2026-09-04 10:36 amWNW 5.1 7.0----29.94- 82.8 82.8----
2026-09-04 10:30 amWNW 6.0 8.9----29.94- 82.6 82.8----
2026-09-04 10:24 am NW 5.1 8.0----29.94- 82.0 82.8----
2026-09-04 10:18 amWNW 5.1 7.0----29.93-- 82.6----
2026-09-04 10:12 am W 6.0 8.0----29.94-- 82.6----
2026-09-04 10:06 amWNW 5.1 7.0----29.94-- 82.6----
2026-09-04 10:00 amWNW 5.1 7.0----29.94+0.00 81.0 82.6----
2026-09-04 09:54 amWNW 7.0 8.9----29.94- 80.6 82.6----